Morgantown, WV

11:24 AM EDT on October 17, 2017 (GMT -0400)
Morgantown Municipal-Hart

Weather History for KMGW - February, 2009

Change the Weather History Date:

Friday, February 20, 2009

  Actual Average Record
Temperature  
Mean Temperature 22 °F 35 °F  
Max Temperature 28 °F 44 °F 70 °F (1994)
Min Temperature 16 °F 26 °F -7 °F (2015)
Degree Days  
Heating Degree Days 43 30  
Month to date heating degree days 620 632  
Since 1 July heating degree days 3774 3659  
Cooling Degree Days 0 0  
Month to date cooling degree days 0 0  
Year to date cooling degree days 0 0  
Moisture  
Dew Point 9 °F    
Average Humidity 63    
Maximum Humidity 80    
Minimum Humidity 46    
Precipitation  
Precipitation T in 0.10 in 1.35 in (1981)
Month to date precipitation 1.52 1.82  
Year to date precipitation 4.34 4.63  
Snow  
Snow 0.00 in - - ()
Snow Depth 0.00 in    
Sea Level Pressure  
Sea Level Pressure 30.06 in    
Wind  
Wind Speed 7 mph (WSW)    
Max Wind Speed 15 mph    
Max Gust Speed 26 mph    
Visibility 9 miles    
Events Snow    
T = Trace of Precipitation, MM = Missing Value Source: NWS Daily Summary

Daily Weather History Graph

Daily Weather History Graph

Search for Another Location

Airport or City:

Trip Planner

Search our weather history database for the weather conditions in past years. The results will help you decide how hot, cold, wet, or windy it might be!

Date:

Astronomy

Feb. 20, 2009 Rise Set
Actual Time 7:05 AM EST 6:02 PM EST
Civil Twilight 6:37 AM EST 6:29 PM EST
Nautical Twilight 6:06 AM EST 7:00 PM EST
Astronomical Twilight 5:35 AM EST 7:32 PM EST
Moon 4:35 AM EST (2/20) 1:49 PM EST (2/20)
Length of Visible Light 11h 51m
Length of Day
10h 56m
Waning Crescent, 17% of the Moon is Illuminated
Feb 20
Waning Crescent
Feb 24
New
Mar 4
First Quarter
Mar 10
Full
Mar 18
Last Quarter

Hourly Weather History & Observations

Time (EST) Temp. Windchill Dew Point Humidity Pressure Visibility Wind Dir Wind Speed Gust Speed Precip Events Conditions
12:53 AM 18.0 °F 7.7 °F 6.1 °F 60% 29.98 in 10.0 mi WSW 8.1 mph 17.3 mph N/A   Overcast
1:53 AM 18.0 °F 7.7 °F 5.0 °F 57% 29.98 in 10.0 mi West 8.1 mph 20.7 mph N/A   Overcast
2:53 AM 18.0 °F 7.7 °F 6.1 °F 60% 29.98 in 10.0 mi West 8.1 mph 20.7 mph N/A   Overcast
3:53 AM 17.1 °F 8.7 °F 8.1 °F 68% 29.99 in 10.0 mi Variable 5.8 mph - N/A   Overcast
4:20 AM 15.8 °F 5.1 °F 10.4 °F 79% 29.94 in 3.0 mi WSW 8.1 mph 16.1 mph 0.00 in Snow Light Snow
4:28 AM 15.8 °F 4.2 °F 10.4 °F 79% 29.93 in 3.0 mi SW 9.2 mph 16.1 mph 0.00 in   Haze
4:53 AM 16.0 °F 3.6 °F 10.0 °F 77% 29.99 in 9.0 mi SW 10.4 mph - 0.00 in   Overcast
5:53 AM 17.1 °F 7.6 °F 10.0 °F 74% 30.00 in 10.0 mi SW 6.9 mph - 0.00 in   Overcast
6:53 AM 18.0 °F 7.7 °F 10.0 °F 71% 30.01 in 10.0 mi WSW 8.1 mph - 0.00 in   Overcast
7:53 AM 18.0 °F 8.7 °F 10.9 °F 74% 30.03 in 4.0 mi WSW 6.9 mph - N/A   Haze
8:08 AM 19.4 °F 11.5 °F 12.2 °F 74% 29.98 in 2.5 mi Variable 5.8 mph - 0.00 in Snow Light Snow
8:17 AM 19.4 °F 9.5 °F 12.2 °F 74% 29.99 in 6.0 mi WSW 8.1 mph - 0.00 in   Haze
8:53 AM 19.0 °F 6.8 °F 9.0 °F 65% 30.05 in 9.0 mi West 11.5 mph 17.3 mph 0.00 in   Overcast
9:53 AM 19.9 °F 10.1 °F 8.1 °F 60% 30.08 in 10.0 mi WNW 8.1 mph - N/A   Overcast
10:53 AM 21.9 °F 13.4 °F 8.1 °F 55% 30.08 in 10.0 mi Variable 6.9 mph 20.7 mph N/A   Overcast
11:53 AM 23.0 °F 13.9 °F 8.1 °F 53% 30.09 in 10.0 mi West 8.1 mph - N/A   Overcast
12:53 PM 24.1 °F 13.7 °F 7.0 °F 48% 30.08 in 10.0 mi West 10.4 mph 20.7 mph N/A   Mostly Cloudy
1:53 PM 26.1 °F 16.8 °F 8.1 °F 47% 30.08 in 10.0 mi West 9.2 mph 20.7 mph N/A   Mostly Cloudy
2:53 PM 26.1 °F 15.6 °F 8.1 °F 47% 30.07 in 10.0 mi WSW 11.5 mph 18.4 mph N/A   Mostly Cloudy
3:53 PM 27.0 °F 17.3 °F 9.0 °F 47% 30.08 in 10.0 mi West 10.4 mph 17.3 mph N/A   Mostly Cloudy
4:53 PM 27.0 °F 16.7 °F 9.0 °F 47% 30.11 in 10.0 mi West 11.5 mph 18.4 mph N/A   Mostly Cloudy
5:53 PM 27.0 °F 19.5 °F 9.0 °F 47% 30.12 in 10.0 mi Variable 6.9 mph 16.1 mph N/A   Scattered Clouds
6:53 PM 26.1 °F 18.4 °F 9.0 °F 49% 30.14 in 10.0 mi WSW 6.9 mph - N/A   Clear
7:53 PM 26.1 °F - 10.0 °F 51% 30.16 in 10.0 mi Calm Calm - N/A   Clear
8:53 PM 25.0 °F - 10.0 °F 53% 30.17 in 10.0 mi Calm Calm - N/A   Clear
9:53 PM 24.1 °F - 10.0 °F 55% 30.19 in 10.0 mi Calm Calm - N/A   Clear
10:53 PM 21.0 °F - 10.9 °F 65% 30.20 in 10.0 mi Calm Calm - N/A   Clear
11:53 PM 19.0 °F - 10.9 °F 71% 30.20 in 10.0 mi Calm Calm - N/A   Clear